Stations météo

réclame
Mon MeteoGroup
Koksijde, Belgique (6400): Température de l'air & dewpoint: 13.06.2019 11:00:00 - 19.06.2019 11:00:00 (CEST)Koksijde, Belgique (6400): Vitesse du vent & gusts: 13.06.2019 11:00:00 - 19.06.2019 11:00:00 (CEST)Koksijde, Belgique (6400): Direction du vent: 13.06.2019 11:00:00 - 19.06.2019 11:00:00 (CEST)Koksijde, Belgique (6400): reduced air pressure: 13.06.2019 11:00:00 - 19.06.2019 11:00:00 (CEST)Koksijde, Belgique (6400): visibility: 13.06.2019 11:00:00 - 19.06.2019 11:00:00 (CEST)
Date & Time tt [°C] td [°C] ff [km/h] ff [knt] fx [km/h] fx [knt] dd ppp [hPa] vv [km]
19.06.2019 11:00:00 17,2 15,2 4 2 - - N 1008,0 8
19.06.2019 10:00:00 17,5 14,4 5 3 43 23 NNW 1008,1 5
19.06.2019 09:00:00 17,4 15,4 11 6 22 12 SSE 1006,5 15
19.06.2019 08:00:00 16,0 14,8 9 5 - - ESE 1006,1 10
19.06.2019 07:00:00 15,0 14,2 11 6 29 16 E 1006,3 6
19.06.2019 06:00:00 17,1 13,4 11 6 29 16 ESE 1007,1 20
19.06.2019 05:00:00 15,8 13,5 11 6 - - N 1008,0 14
19.06.2019 04:00:00 15,4 13,3 26 14 43 23 NNW 1009,1 5
19.06.2019 03:00:00 18,5 15,0 14 8 40 21 WNW 1009,7 5
19.06.2019 02:00:00 14,5 13,2 7 4 - - E 1008,3 2,3
19.06.2019 01:00:00 14,5 13,1 7 4 14 8 E 1009,1 3,5
19.06.2019 00:00:00 14,6 13,1 7 4 14 8 E 1009,7 5
18.06.2019 23:00:00 15,8 13,4 11 6 - - E 1010,5 8
18.06.2019 22:00:00 16,9 13,4 7 4 22 12 ENE 1010,7 12
18.06.2019 21:00:00 18,0 14,0 14 8 29 16 NNE 1010,8 13
18.06.2019 20:00:00 18,7 14,0 14 8 - - NNE 1011,7 13
18.06.2019 19:00:00 19,5 14,2 18 10 29 16 NNE 1011,8 13
18.06.2019 18:00:00 19,9 14,7 22 12 29 16 NNE 1012,0 18
18.06.2019 17:00:00 20,0 14,1 18 10 - - NNE 1012,6 16
18.06.2019 16:00:00 21,0 14,2 18 10 25 14 N 1013,2 14
18.06.2019 15:00:00 21,7 14,1 14 8 22 12 NNE 1013,7 16
18.06.2019 14:00:00 22,7 16,0 11 6 - - NNE 1014,1 16
18.06.2019 13:00:00 21,7 15,1 4 2 14 8 N 1014,8 20
18.06.2019 12:00:00 20,6 13,8 4 2 11 6 N 1015,2 20
18.06.2019 11:00:00 20,0 13,5 7 4 - - N 1015,7 20
18.06.2019 10:00:00 18,0 12,1 4 2 7 4 N 1015,8 20
18.06.2019 09:00:00 17,2 11,5 4 2 7 4 N 1016,1 15
18.06.2019 08:00:00 15,5 13,2 4 2 - - N 1016,2 8
18.06.2019 07:00:00 12,8 11,6 2 1 4 2 - 1016,2 8
18.06.2019 06:00:00 10,8 9,6 4 2 4 2 N 1016,3 5
18.06.2019 05:00:00 11,6 10,4 4 2 - - N 1016,5 5
18.06.2019 04:00:00 11,9 10,4 2 1 4 2 - 1016,8 6
18.06.2019 03:00:00 13,1 11,0 4 2 4 2 N 1017,2 7
18.06.2019 02:00:00 13,3 10,7 4 2 - - N 1017,6 11
18.06.2019 01:00:00 15,0 10,5 7 4 7 4 N 1018,0 18
18.06.2019 00:00:00 14,6 9,9 4 2 7 4 N 1017,7 20
17.06.2019 23:00:00 15,0 10,3 4 2 - - N 1017,7 19
17.06.2019 22:00:00 15,1 10,8 4 2 11 6 N 1017,6 12
17.06.2019 21:00:00 16,3 10,8 7 4 14 8 NNW 1017,7 18
17.06.2019 20:00:00 17,7 11,7 7 4 - - NW 1017,7 20
17.06.2019 19:00:00 18,8 11,9 11 6 18 10 NW 1018,1 20
17.06.2019 18:00:00 19,1 12,6 11 6 22 12 NW 1018,3 17
17.06.2019 17:00:00 20,1 13,3 7 4 - - NW 1018,7 18
17.06.2019 16:00:00 19,8 13,2 14 8 22 12 NW 1019,0 20
17.06.2019 15:00:00 19,9 14,2 14 8 22 12 NW 1019,2 20
17.06.2019 14:00:00 19,6 13,7 11 6 - - NW 1019,3 20
17.06.2019 13:00:00 19,3 14,7 18 10 29 16 NW 1019,5 20
17.06.2019 12:00:00 20,7 12,4 11 6 25 14 SSW 1019,7 20
17.06.2019 11:00:00 21,2 13,0 14 8 - - SSW 1019,8 20
17.06.2019 10:00:00 20,1 12,8 14 8 18 10 S 1020,1 20
17.06.2019 09:00:00 18,8 14,1 11 6 18 10 S 1020,2 10
17.06.2019 08:00:00 16,2 13,5 7 4 - - SSE 1020,1 10
17.06.2019 07:00:00 13,3 11,4 4 2 4 2 N 1020,2 10
17.06.2019 06:00:00 10,3 9,6 4 2 7 4 N 1020,0 7
17.06.2019 05:00:00 10,0 9,0 4 2 - - N 1020,0 8
17.06.2019 04:00:00 11,0 9,8 4 2 4 2 N 1020,3 8
17.06.2019 03:00:00 11,1 9,6 4 2 7 4 N 1020,7 11
17.06.2019 02:00:00 11,8 9,7 4 2 - - N 1020,8 14
17.06.2019 01:00:00 12,8 10,4 4 2 4 2 N 1021,0 20
17.06.2019 00:00:00 13,1 10,4 4 2 7 4 N 1021,1 20
16.06.2019 23:00:00 14,4 10,0 4 2 - - N 1021,0 20
16.06.2019 22:00:00 16,2 11,0 7 4 22 12 WSW 1020,7 19
16.06.2019 21:00:00 18,3 11,8 11 6 18 10 WSW 1020,7 20
16.06.2019 20:00:00 19,1 12,3 11 6 - - W 1020,7 20
16.06.2019 19:00:00 18,9 12,6 18 10 32 18 WNW 1020,5 14
16.06.2019 18:00:00 19,6 11,0 14 8 43 23 WNW 1020,2 20
16.06.2019 17:00:00 20,9 11,1 25 14 - - WSW 1020,2 17
16.06.2019 16:00:00 21,1 11,8 22 12 36 19 SW 1020,1 20
16.06.2019 15:00:00 20,1 12,1 22 12 32 18 SW 1020,1 19
16.06.2019 14:00:00 19,9 11,4 22 12 - - SW 1019,7 20
16.06.2019 13:00:00 19,2 12,3 22 12 36 19 SW 1020,0 17
16.06.2019 12:00:00 17,0 11,3 22 12 32 18 SW 1020,0 19
16.06.2019 11:00:00 17,7 11,1 22 12 - - SSW 1019,5 20
16.06.2019 10:00:00 16,7 11,8 18 10 29 16 SW 1019,3 20
16.06.2019 09:00:00 15,6 12,4 11 6 22 12 SW 1019,2 15
16.06.2019 08:00:00 14,8 12,5 14 8 - - SW 1018,6 19
16.06.2019 07:00:00 13,5 12,0 9 5 14 8 SSW 1018,0 10
16.06.2019 06:00:00 12,9 11,6 7 4 11 6 SSW 1017,7 12
16.06.2019 05:00:00 12,8 11,2 7 4 - - SSW 1017,2 13
16.06.2019 04:00:00 13,1 11,0 7 4 18 10 SSW 1017,1 15
16.06.2019 03:00:00 13,6 11,0 11 6 14 8 S 1017,2 16
16.06.2019 02:00:00 13,6 10,9 11 6 - - SSW 1017,0 17
16.06.2019 01:00:00 14,3 10,9 11 6 14 8 SW 1016,8 19
16.06.2019 00:00:00 15,6 10,8 7 4 11 6 SSE 1016,5 19
15.06.2019 23:00:00 15,0 10,8 7 4 - - SSW 1016,2 20
15.06.2019 22:00:00 16,0 10,8 7 4 18 10 SW 1016,1 20
15.06.2019 21:00:00 17,3 11,4 7 4 11 6 ESE 1015,8 20
15.06.2019 20:00:00 18,3 10,6 7 4 - - NNW 1015,7 17
15.06.2019 19:00:00 17,5 10,7 7 4 18 10 NW 1015,6 19
15.06.2019 18:00:00 17,7 11,6 14 8 22 12 NW 1015,7 19
15.06.2019 17:00:00 19,2 11,0 7 4 - - NNW 1015,6 18
15.06.2019 16:00:00 18,3 10,4 11 6 18 10 NW 1015,7 20
15.06.2019 15:00:00 18,2 10,3 11 6 18 10 NW 1015,7 14
15.06.2019 14:00:00 17,5 9,7 7 4 - - NNW 1015,6 19
15.06.2019 13:00:00 17,6 10,2 7 4 18 10 NNW 1015,2 18
15.06.2019 12:00:00 17,3 10,9 11 6 18 10 NW 1014,8 20
15.06.2019 11:00:00 17,2 10,4 11 6 - - NW 1014,2 19
15.06.2019 10:00:00 16,3 11,5 7 4 11 6 N 1013,8 20
15.06.2019 09:00:00 15,5 11,4 7 4 11 6 WNW 1013,2 20
15.06.2019 08:00:00 14,6 11,8 4 2 - - N 1013,1 14
15.06.2019 07:00:00 13,8 11,3 5 3 7 4 WNW 1012,7 10
15.06.2019 06:00:00 13,8 11,3 4 2 7 4 N 1012,7 10
15.06.2019 05:00:00 14,0 10,9 4 2 - - N 1012,5 13
15.06.2019 04:00:00 13,6 11,5 4 2 4 2 N 1012,2 17
15.06.2019 03:00:00 13,5 10,7 4 2 4 2 N 1012,6 18
15.06.2019 02:00:00 13,7 10,3 4 2 - - N 1012,5 20
15.06.2019 01:00:00 13,5 10,3 4 2 7 4 N 1013,1 20
15.06.2019 00:00:00 14,1 10,2 4 2 7 4 N 1013,2 19
14.06.2019 23:00:00 13,6 10,3 4 2 - - N 1013,7 20
14.06.2019 22:00:00 14,3 10,3 7 4 11 6 E 1014,0 20
14.06.2019 21:00:00 15,1 9,8 7 4 18 10 NNE 1013,7 20
14.06.2019 20:00:00 16,2 8,7 11 6 - - NNW 1013,5 20
14.06.2019 19:00:00 16,2 10,3 11 6 22 12 NNW 1013,3 20
14.06.2019 18:00:00 17,2 10,0 14 8 25 14 NW 1013,2 20
14.06.2019 17:00:00 18,2 10,8 14 8 - - NW 1013,2 20
14.06.2019 16:00:00 19,8 8,8 11 6 25 14 SSW 1013,6 20
14.06.2019 15:00:00 19,0 9,4 7 4 25 14 W 1014,1 20
14.06.2019 14:00:00 19,3 11,0 14 8 - - WSW 1014,0 20
14.06.2019 13:00:00 18,9 9,7 22 12 32 18 SSW 1013,7 20
14.06.2019 12:00:00 18,8 11,5 22 12 32 18 SSW 1013,2 20
14.06.2019 11:00:00 17,8 11,7 14 8 - - SSW 1013,1 20
14.06.2019 10:00:00 15,9 11,7 11 6 18 10 SSW 1012,8 20
14.06.2019 09:00:00 13,6 11,1 11 6 18 10 S 1013,0 15
14.06.2019 08:00:00 11,9 10,5 4 2 - - N 1012,7 15
14.06.2019 07:00:00 11,0 9,7 4 2 7 4 N 1012,3 15
14.06.2019 06:00:00 10,1 8,9 4 2 7 4 N 1012,3 12
14.06.2019 05:00:00 10,8 9,3 4 2 - - N 1012,1 15
14.06.2019 04:00:00 10,5 9,2 7 4 14 8 N 1011,7 13
14.06.2019 03:00:00 10,9 9,6 7 4 14 8 S 1011,7 15
14.06.2019 02:00:00 11,5 10,0 11 6 - - SSE 1012,1 18
14.06.2019 01:00:00 12,0 10,6 11 6 14 8 S 1012,1 17
14.06.2019 00:00:00 12,1 10,6 11 6 14 8 S 1011,8 19
13.06.2019 23:00:00 12,6 11,0 7 4 - - SSW 1011,7 19
13.06.2019 22:00:00 13,6 11,3 14 8 25 14 SSW 1011,0 20
13.06.2019 21:00:00 14,4 10,7 14 8 29 16 SSW 1010,5 20
13.06.2019 20:00:00 15,1 10,3 18 10 - - SSW 1010,0 20
13.06.2019 19:00:00 15,0 11,1 14 8 25 14 SSW 1009,6 20
13.06.2019 18:00:00 14,6 11,3 18 10 29 16 SSW 1009,6 20
13.06.2019 17:00:00 12,5 10,8 18 10 - - SSW 1009,7 6
13.06.2019 16:00:00 13,6 10,4 14 8 36 19 WSW 1009,5 20
13.06.2019 15:00:00 13,5 11,3 24 13 43 23 WSW 1009,2 7
13.06.2019 14:00:00 16,1 10,1 29 16 - - SSW 1009,2 20
13.06.2019 13:00:00 14,9 9,8 29 16 43 23 SSW 1009,5 20
13.06.2019 12:00:00 15,5 10,0 25 14 43 23 SSW 1009,5 19
13.06.2019 11:00:00 14,1 10,1 24 13 - - SSW 1009,5 10

tt = Température de l'air
td = dewpoint
ff = Vitesse du vent
fx = gusts
dd = Direction du vent
ppp = reduced air pressure
vv = visibility

stations d'obs. à proximité